Simultaneous Nadir Overpasses (SNOs) Predictions

Prediction of SNOs between NOAA-20 and PACE Satellite Orbit:

Table of predicted SNOs for the next 14.0 days since TLE Epoch: 11/2/2024
Index Date (NOAA-20) Time (NOAA-20) Lat,Lon (NOAA-20) SZA (NOAA-20 ) Date (PACE) Time (PACE) Lat,Lon (PACE) SZA (PACE ) Distance(km) Time Diff (sec)
1 11/02/2024 18:06:09 -79.77, 51.66 83.65 11/02/2024 18:06:04 -79.77, 51.63 83.64 0.53 5
2 11/04/2024 21:41:52 79.84, 177.12 97.13 11/04/2024 21:42:15 79.84, 177.09 97.12 0.54 23
3 11/04/2024 22:32:28 -79.58, -13.27 83.29 11/04/2024 22:31:17 -79.59, -13.40 83.25 2.85 71
4 11/07/2024 01:17:32 -79.87, -57.10 82.18 11/07/2024 01:18:23 -79.87, -57.19 82.19 1.90 51
5 11/07/2024 02:08:11 79.66, 112.11 97.48 11/07/2024 02:07:26 79.66, 112.09 97.50 0.35 45
6 11/09/2024 04:54:35 81.32, 39.70 102.83 11/09/2024 04:55:48 81.84, 40.11 103.00 57.96 73
7 11/09/2024 05:43:53 -79.77,-122.75 81.72 11/09/2024 05:43:34 -79.77,-122.70 81.72 1.06 19
8 11/11/2024 09:19:35 79.84, 2.65 99.01 11/11/2024 09:19:39 79.83, 2.81 98.98 3.19 4
9 11/13/2024 12:55:12 -79.81, 129.06 80.48 11/13/2024 12:55:40 -79.82, 128.92 80.47 3.13 28
10 11/13/2024 13:45:51 79.60, -61.81 99.19 11/13/2024 13:44:43 79.61, -61.87 99.23 1.39 68
11 11/15/2024 16:30:53 79.87,-105.48 100.20 11/15/2024 16:31:41 79.88,-105.54 100.19 1.29 48



Historial Predications of SNOs between NOAA-20 and PACE
